Tiempo cada hora Abdulovo

Hoy, 28 Octubre, Miércoles

Tiempo Temperatura Precipitaciones Viento Presión Humedad
00:00 -3°C° 0 mm 4 mps 759 mmHg 72%
01:00 -2°C° 0 mm 3 mps 759 mmHg 72%
02:00 -2°C° 0 mm 3 mps 759 mmHg 72%
03:00 -2°C° 0 mm 3 mps 760 mmHg 73%
04:00 -2°C° 0 mm 2 mps 760 mmHg 75%
05:00 -2°C° 0 mm 2 mps 760 mmHg 75%
06:00 -2°C° 0 mm 2 mps 760 mmHg 74%
07:00 -2°C° 0 mm 2 mps 760 mmHg 74%
08:00 +1°C° 0 mm 1 mps 761 mmHg 69%
09:00 +2°C° 0 mm 1 mps 761 mmHg 63%
10:00 +2°C° 0 mm 2 mps 762 mmHg 57%
11:00 +2°C° 0 mm 2 mps 761 mmHg 54%
12:00 +3°C° 0 mm 2 mps 761 mmHg 50%
13:00 +4°C° 0 mm 2 mps 761 mmHg 47%
14:00 +4°C° 0 mm 2 mps 761 mmHg 50%
15:00 +5°C° 0 mm 1 mps 761 mmHg 54%
16:00 +4°C° 0 mm 1 mps 761 mmHg 59%
17:00 +3°C° 0 mm 1 mps 761 mmHg 61%
18:00 +2°C° 0 mm 1 mps 761 mmHg 64%
19:00 +2°C° 0 mm 1 mps 761 mmHg 67%
20:00 +2°C° 0 mm 1 mps 761 mmHg 67%
21:00 +1°C° 0 mm 1 mps 761 mmHg 67%
22:00 +1°C° 0 mm 1 mps 761 mmHg 68%
23:00 +1°C° 0 mm 1 mps 761 mmHg 68%

Mañana, 29 Octubre, Jueves

Tiempo Temperatura Precipitaciones Viento Presión Humedad
00:00 +1°C° 0 mm 1 mps 761 mmHg 68%
01:00 +1°C° 0 mm 1 mps 761 mmHg 68%
02:00 -1°C° 0 mm 2 mps 761 mmHg 68%
03:00 -1°C° 0 mm 2 mps 761 mmHg 69%
04:00 -1°C° 0 mm 2 mps 761 mmHg 69%
05:00 -1°C° 0 mm 2 mps 761 mmHg 69%
06:00 -1°C° 0 mm 2 mps 761 mmHg 70%
07:00 -1°C° 0 mm 2 mps 761 mmHg 70%
08:00 +1°C° 0 mm 2 mps 761 mmHg 66%
09:00 +2°C° 0 mm 2 mps 761 mmHg 63%
10:00 +3°C° 0 mm 2 mps 761 mmHg 60%
11:00 +4°C° 0 mm 2 mps 761 mmHg 57%
12:00 +4°C° 0 mm 3 mps 761 mmHg 55%
13:00 +5°C° 0 mm 3 mps 761 mmHg 53%
14:00 +4°C° 0 mm 3 mps 761 mmHg 55%
15:00 +4°C° 0 mm 3 mps 761 mmHg 58%
16:00 +5°C° 0 mm 2 mps 761 mmHg 60%
17:00 +4°C° 0 mm 2 mps 760 mmHg 63%
18:00 +3°C° 0 mm 2 mps 760 mmHg 65%
19:00 +2°C° 0 mm 2 mps 760 mmHg 67%
20:00 +2°C° 0 mm 2 mps 760 mmHg 68%
21:00 +2°C° 0 mm 2 mps 760 mmHg 69%
22:00 +2°C° 0 mm 2 mps 760 mmHg 69%
23:00 +2°C° 0 mm 2 mps 760 mmHg 69%

Pasado mañana, 30 Octubre, Viernes

Tiempo Temperatura Precipitaciones Viento Presión Humedad
00:00 +2°C° 0 mm 2 mps 760 mmHg 69%
01:00 +1°C° 0 mm 2 mps 760 mmHg 68%
02:00 +1°C° 0 mm 2 mps 759 mmHg 68%
03:00 +1°C° 0 mm 2 mps 759 mmHg 67%
04:00 +1°C° 0 mm 2 mps 759 mmHg 66%
05:00 +1°C° 0 mm 2 mps 759 mmHg 65%
06:00 +1°C° 0 mm 2 mps 759 mmHg 64%
07:00 +1°C° 0 mm 2 mps 759 mmHg 63%
08:00 +2°C° 0 mm 3 mps 759 mmHg 60%
09:00 +3°C° 0 mm 4 mps 759 mmHg 56%
10:00 +4°C° 0 mm 4 mps 759 mmHg 52%
11:00 +4°C° 0 mm 4 mps 758 mmHg 52%
12:00 +5°C° 0 mm 5 mps 758 mmHg 51%
13:00 +6°C° 0 mm 5 mps 758 mmHg 51%
14:00 +6°C° 0 mm 5 mps 757 mmHg 52%
15:00 +5°C° 0 mm 4 mps 757 mmHg 54%
16:00 +5°C° 0 mm 4 mps 757 mmHg 55%
17:00 +4°C° 0 mm 4 mps 757 mmHg 57%
18:00 +4°C° 0 mm 4 mps 757 mmHg 59%
19:00 +3°C° 0 mm 4 mps 756 mmHg 61%
20:00 +3°C° 0 mm 4 mps 756 mmHg 60%
21:00 +3°C° 0 mm 4 mps 756 mmHg 59%
22:00 +3°C° 0 mm 4 mps 756 mmHg 59%
23:00 +3°C° 0 mm 4 mps 756 mmHg 59%

31 Octubre, Sábado

Tiempo Temperatura Precipitaciones Viento Presión Humedad
00:00 +3°C° 0 mm 4 mps 756 mmHg 59%
01:00 +3°C° 0 mm 3 mps 755 mmHg 60%
02:00 +3°C° 0 mm 4 mps 755 mmHg 60%
03:00 +3°C° 0 mm 4 mps 755 mmHg 61%
04:00 +3°C° 0 mm 4 mps 755 mmHg 61%
05:00 +3°C° 0 mm 4 mps 755 mmHg 61%
06:00 +3°C° 0 mm 4 mps 754 mmHg 60%
07:00 +2°C° 0 mm 5 mps 754 mmHg 60%
08:00 +3°C° 0 mm 5 mps 754 mmHg 57%
09:00 +3°C° 0 mm 5 mps 754 mmHg 55%
10:00 +4°C° 0 mm 6 mps 754 mmHg 53%
11:00 +5°C° 0 mm 6 mps 753 mmHg 51%
12:00 +7°C° 0 mm 6 mps 753 mmHg 49%
13:00 +7°C° 0 mm 6 mps 753 mmHg 48%
14:00 +7°C° 0 mm 5 mps 753 mmHg 49%
15:00 +7°C° 0 mm 5 mps 753 mmHg 51%
16:00 +7°C° 0 mm 4 mps 752 mmHg 53%
17:00 +7°C° 0 mm 4 mps 752 mmHg 54%
18:00 +6°C° 0 mm 4 mps 752 mmHg 56%
19:00 +6°C° 0 mm 4 mps 752 mmHg 57%
20:00 +6°C° 0 mm 4 mps 752 mmHg 58%
21:00 +6°C° 0 mm 4 mps 752 mmHg 60%
22:00 +6°C° 0 mm 4 mps 752 mmHg 61%
23:00 +5°C° 0 mm 4 mps 752 mmHg 65%

1 Noviembre, Domingo

Tiempo Temperatura Precipitaciones Viento Presión Humedad
00:00 +5°C° 0 mm 3 mps 752 mmHg 70%
01:00 +5°C° 0 mm 3 mps 751 mmHg 74%
02:00 +4°C° 0 mm 3 mps 751 mmHg 76%
03:00 +4°C° 0 mm 3 mps 751 mmHg 78%
04:00 +5°C° 0 mm 2 mps 751 mmHg 80%
05:00 +5°C° 0 mm 2 mps 751 mmHg 78%
06:00 +6°C° 0 mm 1 mps 751 mmHg 76%
07:00 +6°C° 0 mm 1 mps 752 mmHg 74%
08:00 +7°C° 0 mm 1 mps 752 mmHg 70%
09:00 +8°C° 0 mm 1 mps 752 mmHg 67%
10:00 +8°C° 0 mm 1 mps 752 mmHg 64%
11:00 +8°C° 0 mm 1 mps 752 mmHg 66%
12:00 +7°C° 0 mm 2 mps 753 mmHg 67%
13:00 +8°C° 0 mm 3 mps 753 mmHg 69%
14:00 +7°C° 0 mm 3 mps 753 mmHg 73%
15:00 +7°C° 0 mm 3 mps 753 mmHg 76%
16:00 +6°C° 0 mm 4 mps 754 mmHg 79%
17:00 +5°C° 0 mm 4 mps 754 mmHg 83%
18:00 +4°C° 0 mm 4 mps 755 mmHg 87%
19:00 +3°C° 0 mm 5 mps 755 mmHg 91%
20:00 +2°C° 0 mm 5 mps 755 mmHg 90%
21:00 +2°C° 0 mm 5 mps 756 mmHg 88%
22:00 +2°C° 0 mm 5 mps 756 mmHg 86%
23:00 +1°C° 0 mm 4 mps 756 mmHg 88%

2 Noviembre, Lunes

Tiempo Temperatura Precipitaciones Viento Presión Humedad
00:00 0°C° 0 mm 4 mps 757 mmHg 89%
01:00 0°C° 0 mm 4 mps 757 mmHg 91%
02:00 0°C° 0 mm 4 mps 757 mmHg 91%
03:00 0°C° 0 mm 3 mps 758 mmHg 92%
04:00 0°C° 0 mm 3 mps 758 mmHg 92%
05:00 0°C° 0 mm 3 mps 758 mmHg 92%
06:00 0°C° 0 mm 3 mps 758 mmHg 92%
07:00 0°C° 0 mm 3 mps 759 mmHg 92%
08:00 +2°C° 0 mm 2 mps 759 mmHg 86%
09:00 +3°C° 0 mm 2 mps 759 mmHg 80%
10:00 +4°C° 0 mm 2 mps 760 mmHg 74%
11:00 +5°C° 0 mm 2 mps 760 mmHg 70%
12:00 +6°C° 0 mm 2 mps 760 mmHg 66%
13:00 +7°C° 0 mm 2 mps 760 mmHg 63%
14:00 +7°C° 0 mm 2 mps 760 mmHg 65%
15:00 +7°C° 0 mm 2 mps 761 mmHg 68%
16:00 +6°C° 0 mm 2 mps 761 mmHg 70%
17:00 +5°C° 0 mm 2 mps 761 mmHg 75%
18:00 +4°C° 0 mm 2 mps 761 mmHg 79%
19:00 +4°C° 0 mm 2 mps 762 mmHg 83%
20:00 +3°C° 0 mm 2 mps 762 mmHg 83%
21:00 +3°C° 0 mm 2 mps 762 mmHg 84%
22:00 +2°C° 0 mm 2 mps 762 mmHg 85%
23:00 +3°C° 0 mm 1 mps 762 mmHg 85%
Mostrar más

Necesitamos Su Consentimiento

Meteoprog y nuestros Proveedores de Servicios pueden almacenar y acceder a sus datos personales como cookies, identificadores de dispositivo u otras tecnologías similares de su dispositivo y procesar dichos datos para personalizar contenido y anuncios, además de ofrecer funciones de redes sociales y analizar el tráfico.

  • Almacenar y/o acceder a información en su dispositivo

    Se puede almacenar o acceder a cookies, identificadores de dispositivo u otra información de su dispositivo para los fines anteriormente indicados.

  • Anuncios y contenido personalizados, medición de anuncios y contenido, percepciones del público, y desarrollo de productos

    Los anuncios y el contenido pueden personalizarse en base a su perfil. Se pueden añadir más datos para personalizar mejor los anuncios y contenidos. Se puede medir el rendimiento de los anuncios y contenidos. Se puede obtener la percepción sobre el público que ha visto los anuncios y contenidos. Dichos datos pueden usarse para desarrollar o mejorar la experiencia del usuario, sistemas y software.

Al hacer clic en ‘Estoy De Acuerdo’ usted permitirá el uso de las cookies, identificadores de dispositivo, balizas web u otras tecnologías similares indicadas. Su configuración puede cambiarse desde el navegador de su dispositivo.

Para ciertos fines, los intereses legítimos pueden ser considerados por encima del consentimiento. Puede leer más sobre ello en nuestra Política de Privacidad y Cookies.